Dewpoint
-20 -20 -21 -21 -20 -20 -20 -20 -20 -20 -19 -19 -19 -19 -19 -19 -20 -20 -20 -20 -19 -19 -18 -18 -18 -17 -17 -17 -17 -16 -15 -15 -15 -16 -16 -16 -17 -17 -18 -19 -19 -19
-21 -22 -22 -21 -20 -20 -20 -21 -21 -20 -20 -19 -19 -20 -20 -21 -21 -21 -20 -20 -19 -18 -18 -18 -18 -17 -17 -16 -16 -16 -15 -15 -16 -17 -17 -17 -18 -18 -18 -18 -19 -20
-22 -22 -22 -21 -20 -20 -21 -21 -21 -22 -21 -21 -21 -21 -21 -21 -22 -21 -20 -19 -19 -19 -19 -19 -19 -19 -18 -18 -16 -16 -16 -16 -17 -18 -17 -17 -17 -17 -17 -17 -18 -20
-22 -21 -21 -21 -21 -21 -21 -21 -22 -22 -22 -22 -22 -22 -22 -22 -22 -21 -21 -20 -20 -20 -21 -21 -21 -20 -19 -19 -18 -17 -17 -16 -16 -17 -16 -16 -15 -14 -14 -14 -14 -16
-21 -21 -21 -21 -21 -21 -22 -22 -22 -22 -22 -22 -22 -22 -22 -22 -22 -22 -22 -22 -22 -22 -22 -22 -22 -21 -20 -19 -19 -18 -18 -17 -17 -17 -16 -16 -15 -14 -13 -13 -13 -13
-21 -22 -22 -21 -21 -22 -22 -22 -22 -22 -22 -22 -22 -22 -22 -22 -22 -22 -22 -22 -22 -22 -22 -22 -22 -22 -21 -21 -20 -19 -19 -19 -18 -18 -17 -16 -16 -15 -14 -13 -13 -12
-22 -22 -22 -22 -21 -21 -21 -21 -21 -21 -21 -21 -21 -21 -21 -21 -22 -22 -22 -22 -22 -22 -22 -22 -21 -21 -21 -21 -21 -20 -19 -19 -19 -18 -18 -17 -18 -18 -17 -14 -12 -12
-22 -22 -22 -21 -21 -21 -21 -21 -21 -21 -21 -21 -20 -20 -20 -20 -20 -21 -21 -21 -21 -21 -21 -21 -20 -19 -19 -20 -20 -19 -19 -19 -18 -18 -18 -18 -19 -19 -15 -13 -12 -12
-22 -22 -21 -21 -21 -21 -21 -20 -20 -20 -20 -20 -20 -20 -20 -20 -20 -20 -20 -20 -20 -20 -20 -20 -19 -19 -18 -18 -18 -18 -18 -17 -17 -17 -17 -17 -16 -15 -13 -13 -13 -12
-22 -22 -21 -21 -21 -21 -21 -20 -20 -20 -20 -20 -20 -20 -20 -20 -20 -20 -20 -20 -20 -20 -20 -20 -19 -19 -19 -19 -18 -18 -17 -17 -16 -16 -16 -15 -14 -14 -14 -14 -13 -12
-22 -22 -21 -21 -21 -21 -21 -21 -21 -21 -20 -20 -20 -20 -20 -20 -20 -19 -20 -20 -19 -19 -19 -19 -19 -19 -19 -19 -19 -18 -18 -17 -16 -16 -16 -15 -15 -14 -14 -14 -13 -12
-22 -21 -21 -21 -21 -21 -21 -21 -21 -21 -21 -20 -20 -20 -20 -20 -20 -20 -20 -19 -19 -19 -19 -19 -19 -19 -19 -19 -19 -19 -18 -17 -17 -16 -16 -15 -15 -15 -14 -14 -12 -12
-21 -21 -21 -21 -21 -21 -21 -20 -20 -20 -20 -20 -20 -20 -20 -20 -20 -19 -19 -19 -19 -19 -19 -19 -19 -19 -18 -18 -19 -20 -20 -19 -18 -17 -17 -16 -15 -15 -14 -14 -13 -12
-21 -21 -20 -20 -20 -20 -20 -20 -20 -19 -19 -19 -19 -19 -19 -19 -19 -19 -19 -19 -19 -19 -19 -19 -18 -18 -18 -18 -18 -20 -21 -21 -20 -19 -18 -17 -16 -15 -15 -14 -13 -12
-21 -20 -20 -19 -19 -19 -19 -19 -19 -19 -18 -18 -18 -18 -18 -18 -17 -17 -18 -18 -18 -18 -18 -18 -18 -17 -17 -17 -17 -18 -19 -21 -22 -21 -19 -18 -17 -16 -16 -15 -13 -12
-20 -20 -19 -19 -19 -18 -18 -18 -18 -18 -17 -17 -17 -17 -17 -17 -16 -16 -16 -16 -16 -16 -16 -16 -16 -16 -15 -16 -15 -16 -16 -18 -20 -21 -21 -19 -18 -17 -16 -15 -14 -13
-20 -20 -19 -18 -18 -17 -17 -17 -17 -17 -17 -16 -16 -16 -15 -15 -15 -15 -15 -15 -15 -15 -15 -14 -14 -14 -14 -14 -15 -15 -15 -16 -17 -20 -21 -20 -18 -18 -17 -16 -15 -13
-20 -19 -19 -18 -17 -16 -16 -16 -16 -16 -16 -15 -15 -15 -14 -14 -14 -14 -14 -14 -14 -14 -13 -13 -13 -13 -13 -13 -13 -14 -14 -15 -15 -16 -19 -20 -19 -18 -17 -16 -15 -15
-19 -19 -18 -17 -17 -16 -15 -15 -15 -15 -15 -15 -14 -14 -14 -13 -13 -13 -13 -13 -13 -13 -12 -12 -12 -12 -12 -12 -12 -13 -13 -14 -14 -14 -16 -18 -19 -18 -17 -16 -16 -15
-19 -19 -18 -17 -17 -16 -15 -15 -14 -14 -14 -14 -14 -14 -13 -13 -13 -12 -12 -12 -12 -12 -12 -12 -12 -11 -11 -11 -12 -12 -12 -13 -13 -13 -13 -14 -16 -17 -18 -17 -17 -16
-19 -18 -18 -17 -17 -16 -15 -15 -14 -14 -14 -14 -14 -13 -13 -13 -12 -12 -12 -12 -12 -12 -12 -12 -12 -12 -11 -11 -11 -11 -12 -12 -12 -12 -12 -12 -12 -13 -15 -16 -17 -17
-19 -18 -18 -17 -17 -16 -15 -15 -15 -14 -14 -14 -14 -14 -13 -13 -12 -12 -12 -12 -12 -12 -12 -12 -12 -12 -12 -12 -11 -11 -11 -11 -11 -10 -10 -10 -11 -11 -12 -14 -16 -17
-19 -18 -17 -17 -17 -16 -15 -15 -15 -14 -14 -14 -14 -14 -13 -13 -12 -12 -12 -12 -12 -12 -12 -12 -12 -13 -12 -12 -12 -11 -11 -11 -10 -10 -10 -10 -10 -10 -11 -12 -13 -17
-18 -18 -17 -17 -17 -16 -15 -15 -15 -14 -14 -14 -14 -14 -13 -13 -13 -13 -13 -13 -12 -12 -12 -12 -12 -12 -12 -13 -13 -12 -11 -11 -10 -10 -9 -9 -9 -10 -10 -11 -12 -15
-18 -18 -17 -17 -17 -16 -15 -15 -14 -14 -14 -14 -14 -13 -13 -13 -13 -14 -13 -13 -13 -13 -12 -11 -11 -11 -12 -13 -13 -13 -12 -11 -11 -10 -10 -10 -10 -9 -10 -10 -10 -12
-18 -18 -17 -17 -16 -16 -15 -14 -14 -14 -14 -14 -14 -13 -13 -13 -14 -14 -13 -13 -13 -13 -12 -11 -11 -11 -12 -13 -13 -12 -11 -11 -11 -11 -10 -10 -10 -10 -10 -10 -10 -10
Wind_Speed
20 22 24 24 23 21 20 20 20 20 19 18 19 19 18 19 20 21 22 23 23 22 21 20 21 21 23 26 27 25 23 21 24 26 26 29 31 32 34 35 35 34
23 25 25 24 22 20 20 20 21 21 21 20 20 20 20 21 22 23 23 22 20 20 18 18 19 20 21 21 20 20 20 21 27 31 31 33 35 34 35 35 36 36
25 25 23 22 20 20 21 21 22 22 23 22 22 22 22 22 23 22 20 19 18 19 19 19 21 23 26 26 22 21 21 23 28 32 32 33 34 33 33 33 34 36
23 22 21 20 20 20 20 20 20 21 21 21 22 22 22 22 22 22 21 21 20 21 21 22 24 25 28 29 28 27 26 26 28 29 28 28 28 26 26 26 28 31
21 21 21 21 20 20 20 20 21 21 21 22 22 22 22 22 22 22 22 22 22 23 24 24 25 26 27 28 27 26 26 26 27 27 27 27 26 25 24 23 25 27
20 21 21 21 20 20 21 21 22 21 21 22 21 21 21 21 22 22 23 23 23 24 24 24 24 25 25 26 26 26 26 27 26 26 26 26 26 26 24 24 26 26
22 22 21 21 21 21 22 22 21 21 21 21 21 21 21 21 22 22 22 22 22 22 22 23 23 22 22 23 25 26 26 27 26 26 28 28 29 28 25 24 25 26
23 22 21 20 21 22 21 21 21 21 21 21 22 21 20 21 21 21 20 21 21 21 21 22 21 20 20 21 23 24 25 25 25 26 27 27 28 27 24 25 27 26
22 21 21 21 21 21 21 21 21 21 21 21 21 21 20 20 20 21 21 20 20 20 20 21 21 20 19 20 21 22 23 24 24 24 23 23 23 23 23 26 29 27
21 20 21 21 21 21 22 23 23 23 22 22 22 22 21 21 21 20 20 20 20 20 20 20 20 20 21 22 22 23 23 22 23 24 23 22 22 23 26 29 29 28
21 21 21 22 22 23 24 24 24 23 23 23 23 23 23 22 21 21 20 20 20 20 20 21 20 20 21 21 22 24 25 25 25 27 28 27 27 28 31 31 29 27
20 20 22 23 25 25 25 25 25 24 23 23 22 22 22 22 22 22 22 22 21 21 22 22 22 22 22 22 23 23 26 29 29 29 30 31 31 31 32 31 27 25
20 22 25 27 27 27 27 27 26 24 24 23 22 22 22 21 21 21 21 22 22 22 23 23 23 23 24 25 25 26 29 32 33 33 32 32 32 32 32 31 28 25
24 26 28 29 29 29 29 27 26 25 24 23 22 22 21 20 20 20 20 20 21 21 21 22 22 23 24 25 25 27 30 33 35 35 35 34 33 33 33 31 28 25
28 29 29 30 30 30 29 27 27 25 24 23 22 21 20 19 17 17 18 18 18 18 19 19 21 22 22 22 22 23 25 28 31 32 34 36 35 34 35 33 29 26
29 30 30 30 30 30 29 28 27 25 24 23 22 20 19 18 17 16 17 17 17 16 16 17 19 19 19 18 19 19 20 22 25 27 31 35 36 36 36 35 31 28
30 31 30 30 30 30 29 28 26 25 24 23 22 20 19 18 17 17 16 15 16 15 15 15 15 14 14 14 15 15 16 19 20 22 27 33 36 37 37 36 33 30
31 31 30 30 30 29 29 28 26 24 24 23 22 20 18 17 17 16 16 15 15 15 15 14 12 10 9 10 12 12 14 17 19 19 23 30 35 37 37 37 35 33
31 31 29 28 28 28 29 28 27 25 24 24 22 20 18 17 17 17 16 15 15 15 15 14 11 8 8 9 9 10 12 16 20 20 21 27 33 37 38 38 37 35
30 30 29 27 26 26 26 27 27 25 25 25 24 21 19 17 17 18 17 15 15 14 14 14 12 10 9 8 8 8 9 13 18 20 21 22 26 32 37 40 40 38
29 29 29 27 26 24 24 26 26 25 26 26 25 23 20 18 18 19 17 15 15 14 14 15 14 12 11 10 9 9 11 16 20 23 24 24 24 25 28 33 39 41
29 29 28 28 27 25 25 26 26 26 26 26 26 23 19 18 19 19 18 16 15 15 15 16 16 15 14 13 13 12 12 15 19 22 25 28 28 27 25 25 30 37
27 27 27 27 26 25 24 25 26 25 25 25 25 22 19 19 20 19 18 17 16 15 15 16 16 17 16 15 14 13 11 13 15 18 20 22 24 26 27 24 23 29
26 26 25 25 25 24 24 24 24 23 23 24 23 21 19 19 21 20 18 17 17 14 13 15 16 16 17 16 14 12 12 14 16 16 15 16 17 20 24 24 20 20
26 25 24 23 24 23 22 22 22 22 22 22 23 21 19 19 21 22 20 18 16 13 13 16 15 14 14 15 14 12 12 14 16 15 15 16 15 15 18 21 18 15
24 24 22 21 22 22 21 20 20 20 21 22 22 19 17 19 22 22 22 20 17 15 16 17 14 12 14 15 14 12 12 13 15 15 14 14 13 11 13 16 17 13
Wind_Direction
315 314 312 308 304 300 300 300 298 296 294 290 286 284 282 281 281 279 278 278 277 275 275 273 271 269 265 260 256 256 257 258 258 259 260 262 263 263 263 261 258 257
315 313 311 308 303 300 298 298 297 294 291 289 286 285 284 283 283 281 278 275 273 273 273 272 270 266 263 261 259 258 259 260 260 260 263 264 265 266 265 264 260 257
316 314 312 308 303 301 300 298 296 293 290 288 286 285 285 285 284 281 277 273 272 272 271 271 271 266 262 259 258 258 259 261 261 262 264 265 265 265 264 263 262 258
317 317 314 310 305 302 301 300 298 296 293 290 288 287 286 285 283 280 277 274 273 272 271 271 270 267 262 259 258 259 259 261 262 261 262 261 260 259 258 258 258 257
318 317 314 311 307 305 303 301 299 298 295 292 290 289 286 284 283 280 278 276 274 273 273 271 270 266 261 258 258 258 258 260 261 261 261 260 258 256 254 254 254 254
319 317 315 312 309 307 305 302 301 299 296 294 291 289 287 285 283 281 279 277 276 275 273 271 270 268 263 258 256 256 257 258 259 258 257 256 256 255 254 255 255 255
320 318 316 314 311 309 306 304 302 300 298 296 293 290 287 285 284 282 280 279 277 275 274 272 270 269 265 259 255 255 256 257 257 256 254 255 256 253 252 255 255 257
321 320 318 315 313 311 308 306 304 302 300 297 294 292 289 286 284 283 280 278 277 275 274 272 271 269 265 259 256 255 255 256 255 255 254 255 254 250 250 250 247 254
321 320 319 317 316 313 311 309 306 304 302 299 296 294 290 287 285 283 281 278 276 275 273 271 270 268 264 260 256 255 257 257 255 253 253 252 249 246 247 245 244 251
321 320 320 319 318 316 314 312 309 307 304 301 298 295 292 289 286 283 281 278 275 273 271 270 267 265 264 261 258 256 254 251 247 246 244 241 242 244 244 244 247 251
323 323 322 321 320 320 318 317 315 311 307 304 300 297 293 290 288 284 281 278 275 272 270 269 268 265 264 262 259 256 251 245 242 241 239 237 240 243 242 244 249 251
324 324 325 326 326 326 327 327 326 322 318 314 309 303 298 293 289 285 281 277 274 272 270 269 267 265 263 262 260 255 250 246 245 243 241 241 243 243 243 244 248 249
325 329 332 334 335 335 336 336 335 333 330 327 323 318 311 305 299 293 288 283 277 274 273 272 270 268 266 265 262 256 251 247 246 244 243 244 245 244 244 245 246 247
334 337 339 341 342 343 343 342 342 340 338 335 332 329 324 320 314 308 301 294 288 284 283 281 278 275 274 271 267 261 255 251 249 246 243 243 244 244 244 244 245 246
340 342 343 345 347 347 348 347 346 345 342 340 338 335 332 329 324 318 313 307 303 297 293 290 285 282 281 279 275 269 261 256 254 249 244 242 243 244 245 244 244 246
342 344 346 348 349 350 351 351 349 348 346 344 343 340 338 336 333 330 325 320 317 312 307 301 295 291 290 286 281 276 270 263 258 252 245 242 242 244 246 246 246 246
344 345 347 349 350 352 354 353 352 351 349 347 346 345 343 342 341 341 337 333 329 325 321 316 309 306 301 291 283 277 272 268 263 254 245 242 243 245 247 248 247 246
345 345 346 348 350 352 354 355 354 354 351 349 348 348 347 347 349 348 347 344 338 333 332 331 327 322 310 296 286 275 266 266 267 260 247 242 243 245 248 250 249 248
346 344 345 348 349 351 353 355 354 354 353 350 350 351 349 350 354 354 353 352 345 339 339 339 337 329 313 301 290 277 261 256 260 263 255 246 243 244 247 250 251 250
345 343 344 347 348 350 352 353 351 352 352 351 352 354 352 352 355 354 352 353 349 344 341 341 340 331 315 302 287 281 275 262 259 262 261 255 249 246 246 247 248 249
344 342 343 344 346 349 352 351 350 351 352 350 351 354 354 354 355 353 351 348 344 339 335 334 335 333 322 310 293 284 289 286 277 274 272 268 263 256 251 247 246 246
343 341 341 342 344 348 351 350 348 350 351 349 349 353 355 356 356 355 351 347 342 337 330 325 327 328 322 316 304 289 284 286 286 288 286 280 273 266 260 255 248 243
343 341 340 341 343 346 349 347 345 347 349 347 347 350 354 357 356 352 350 347 343 340 333 326 326 325 319 314 308 296 287 285 287 295 300 295 284 272 264 262 258 246
342 340 340 341 342 344 345 343 342 344 346 345 345 347 351 354 352 348 348 348 342 337 332 327 325 323 318 313 306 295 286 281 282 290 306 312 302 282 267 263 266 254
341 340 340 340 340 342 342 340 339 340 343 344 343 345 348 351 351 348 347 349 349 341 333 333 331 322 314 310 303 292 279 273 274 281 296 307 310 298 277 268 270 263
339 337 338 338 337 338 340 339 337 339 343 343 341 344 348 349 350 350 349 353 358 351 344 345 341 323 311 311 308 298 284 272 266 267 276 288 299 304 288 274 275 275
Height
1463 1460 1458 1455 1453 1450 1448 1446 1444 1442 1440 1439 1437 1435 1434 1432 1431 1430 1429 1427 1426 1425 1424 1424 1423 1423 1423 1423 1424 1425 1425 1426 1426 1426 1427 1427 1427 1428 1429 1429 1431 1432
1460 1457 1455 1452 1450 1448 1446 1443 1441 1439 1437 1436 1434 1432 1430 1429 1427 1426 1424 1423 1422 1421 1420 1419 1419 1418 1418 1419 1420 1420 1421 1421 1421 1421 1422 1422 1423 1423 1424 1424 1425 1427
1457 1454 1452 1449 1447 1445 1442 1440 1438 1436 1434 1432 1431 1429 1427 1425 1423 1422 1420 1419 1418 1417 1416 1415 1414 1414 1414 1414 1415 1416 1416 1416 1416 1417 1417 1417 1418 1418 1419 1419 1420 1421
1454 1451 1449 1447 1444 1442 1440 1437 1435 1433 1431 1429 1427 1426 1424 1422 1420 1418 1417 1415 1414 1413 1412 1411 1410 1410 1409 1410 1410 1411 1411 1412 1411 1412 1413 1413 1413 1414 1414 1415 1415 1415
1452 1449 1447 1444 1442 1440 1437 1435 1433 1431 1429 1426 1424 1422 1420 1418 1417 1415 1413 1412 1410 1409 1408 1407 1406 1405 1405 1405 1406 1406 1406 1406 1407 1408 1408 1408 1408 1409 1410 1411 1411 1411
1450 1447 1445 1442 1440 1437 1435 1433 1430 1428 1426 1424 1421 1419 1417 1415 1413 1412 1410 1408 1407 1405 1404 1403 1402 1401 1401 1401 1401 1401 1402 1402 1402 1403 1403 1403 1404 1404 1406 1406 1407 1407
1447 1445 1443 1440 1437 1435 1432 1430 1428 1425 1423 1421 1419 1416 1414 1412 1410 1408 1407 1405 1404 1402 1400 1399 1398 1397 1397 1397 1397 1397 1397 1398 1398 1398 1398 1398 1399 1400 1401 1402 1403 1403
1445 1443 1440 1438 1435 1432 1430 1427 1425 1423 1420 1418 1415 1413 1411 1409 1407 1405 1404 1402 1400 1399 1397 1396 1395 1394 1394 1394 1394 1394 1394 1394 1394 1394 1394 1394 1395 1396 1397 1398 1399 1399
1443 1440 1438 1435 1432 1430 1427 1425 1422 1420 1417 1415 1412 1410 1408 1406 1404 1402 1400 1399 1397 1395 1394 1393 1392 1391 1391 1390 1390 1390 1390 1390 1390 1390 1390 1391 1392 1393 1394 1394 1394 1395
1441 1438 1435 1433 1430 1427 1425 1422 1419 1416 1414 1412 1409 1407 1405 1403 1401 1399 1397 1395 1394 1392 1391 1390 1389 1388 1388 1387 1386 1386 1386 1386 1386 1386 1387 1387 1388 1389 1389 1390 1391 1392
1439 1436 1433 1430 1428 1425 1422 1419 1416 1413 1411 1409 1406 1404 1402 1400 1398 1396 1394 1392 1390 1389 1387 1386 1386 1385 1384 1383 1383 1383 1382 1382 1382 1382 1383 1383 1384 1384 1385 1386 1387 1388
1436 1434 1431 1428 1425 1422 1419 1416 1413 1410 1408 1405 1403 1401 1398 1396 1394 1392 1391 1389 1387 1386 1384 1383 1382 1381 1380 1380 1379 1379 1379 1378 1378 1378 1379 1379 1380 1381 1381 1382 1383 1384
1435 1432 1429 1426 1423 1420 1416 1413 1410 1407 1405 1402 1400 1397 1395 1393 1391 1389 1387 1385 1383 1382 1380 1379 1378 1377 1376 1375 1375 1375 1375 1375 1375 1375 1375 1375 1376 1377 1378 1379 1380 1381
1433 1430 1427 1424 1420 1417 1414 1411 1408 1405 1402 1400 1397 1394 1392 1390 1387 1385 1383 1382 1380 1378 1377 1376 1374 1373 1372 1371 1371 1371 1370 1370 1371 1371 1372 1372 1372 1373 1374 1375 1376 1377
1431 1428 1425 1421 1418 1415 1412 1409 1406 1403 1400 1397 1395 1392 1389 1387 1385 1383 1380 1379 1377 1375 1374 1372 1371 1369 1368 1367 1367 1367 1366 1366 1367 1367 1368 1368 1369 1369 1370 1371 1372 1373
1429 1426 1423 1419 1416 1413 1410 1407 1404 1401 1398 1395 1393 1390 1387 1385 1383 1381 1378 1376 1374 1373 1371 1370 1368 1366 1365 1364 1364 1363 1363 1363 1363 1363 1364 1364 1365 1365 1366 1367 1369 1370
1427 1424 1421 1418 1415 1411 1408 1405 1402 1399 1396 1394 1391 1388 1386 1384 1381 1379 1377 1375 1373 1371 1369 1367 1366 1364 1363 1362 1362 1361 1361 1361 1360 1360 1361 1361 1362 1362 1362 1363 1365 1366
1425 1422 1419 1416 1413 1410 1407 1404 1401 1398 1395 1392 1390 1387 1384 1382 1380 1377 1375 1373 1371 1369 1368 1366 1364 1363 1362 1361 1360 1359 1359 1359 1358 1358 1358 1359 1359 1359 1360 1360 1362 1363
1423 1420 1417 1414 1411 1408 1405 1402 1399 1397 1394 1391 1388 1386 1383 1381 1378 1376 1374 1372 1370 1368 1366 1365 1363 1362 1361 1360 1359 1358 1358 1358 1357 1356 1356 1356 1356 1357 1357 1357 1358 1360
1422 1418 1415 1413 1410 1407 1404 1401 1398 1396 1392 1390 1387 1384 1382 1379 1377 1375 1373 1371 1369 1367 1365 1364 1362 1361 1360 1359 1358 1357 1357 1357 1356 1354 1353 1353 1353 1353 1354 1354 1355 1356
1420 1416 1413 1411 1408 1406 1403 1400 1397 1394 1391 1388 1386 1383 1381 1378 1376 1374 1372 1370 1368 1366 1364 1363 1361 1360 1359 1357 1357 1356 1355 1355 1354 1352 1350 1349 1349 1349 1350 1350 1351 1352
1418 1415 1412 1409 1406 1404 1401 1399 1396 1393 1390 1387 1385 1382 1380 1378 1375 1373 1371 1369 1367 1365 1363 1361 1360 1359 1357 1356 1355 1354 1354 1353 1352 1350 1348 1346 1345 1345 1346 1346 1347 1348
1417 1414 1411 1408 1405 1402 1400 1397 1395 1392 1390 1387 1384 1382 1380 1377 1375 1373 1370 1368 1366 1364 1361 1359 1358 1357 1355 1354 1353 1352 1351 1351 1350 1348 1346 1344 1342 1342 1343 1343 1344 1344
1416 1413 1409 1406 1404 1401 1399 1396 1394 1391 1389 1387 1384 1381 1379 1377 1374 1372 1369 1367 1364 1362 1360 1358 1356 1355 1353 1352 1351 1350 1349 1348 1347 1346 1345 1343 1341 1340 1340 1341 1341 1342
1414 1411 1409 1406 1403 1400 1398 1395 1393 1390 1388 1386 1383 1381 1378 1376 1373 1370 1368 1366 1363 1361 1359 1357 1354 1352 1351 1349 1348 1347 1347 1346 1345 1344 1343 1342 1341 1339 1339 1339 1340 1340
1413 1410 1408 1405 1402 1399 1397 1395 1392 1389 1387 1384 1382 1380 1377 1375 1372 1369 1366 1364 1361 1359 1357 1355 1352 1350 1348 1347 1346 1345 1344 1343 1342 1342 1342 1341 1340 1339 1338 1338 1338 1339